Погода в Сопоте

Польша     54°26′41″N   18°34′06″E
темп.,
°C
ветер,
м/с
пор.,
м/с
влажн.,
%
обл.,
%
осадки,
мм/ч
давл.,
гПа
погр.,
м
19 января, вт
вт1901:00−9ю5985100 0.0 1015213
04:00−9ю6109399 0.0 1013254
07:00−7ю61093100 0.2 1012267
10:00−5ю5893100 0.6 1011218
13:00−2ю579296 0.7 1009210
16:00−1ю5896100 0.0 1008247
19:00+1ю5996100 0.0 1007474
22:00+1ю61194100 0.2 1005633
20 января, ср
ср2001:00+1ю71294100 0.3 1004604
04:00+1ююв71297100 0.3 1001376
07:00+2ююз61197100 1.3 1001303
10:00+4юз61497100 0.4 1000374
13:00+3юз71593100 0.5 1000433
16:00+3юз71591100 0.2 1000496
19:00+3юз71493100 0.5 1000425
22:00+3юз61491100 0.1 1001369
21 января, чт
чт2101:00+3юз61388100 0.1 1001311
04:00+3юз51286100 0.0 1000299
07:00+3ююз61383100 0.0 999318
10:00+3ююз71679100 0.0 999416
13:00+5ююз6147597 0.0 999374
16:00+4ююз8178186 0.0 997434
19:00+2ююз7158476 0.0 997387
22:00+2ююз6138857 0.0 996387
22 января, пт
пт2201:00+2ююз6138878 0.0 996430
04:00+2ююз6149098 0.0 995382
07:00+4ююз7158599 0.0 994484
10:00+3ю71489100 0.0 992390
13:00+3ю71492100 0.0 991532
16:00+3ююз51389100 0.0 991423
19:00+2зюз3108988 0.0 994322
22:00+2зюз5128171 0.0 996451
23 января, сб
сб2301:00+2зюз6128186 0.0 997479
04:00+1юз6138436 0.0 998551
07:00+1юз5118633 0.0 999664
10:00+1юз598320 0.0 1000509
13:00+2ююз597944 0.0 1001466
16:00+1ю488965 0.0 1001264
19:000ю489032 0.0 1000225
22:000ююв4989100 0.0 1000279